ANZ249 NZWN-YSSY

Flight info

Callsign ANZ249
Flight time 2h 10m
Altitude 36000
Route TANEN M636 PLUGA DCT RIKNI DCT MARLN
Aircraft A320/M-SDE3FGHIRWY/LB1

Departure

Time 2026-04-25 09:15
Airport Wellington International Airport (NZWN)

Arrival

Time 2026-04-25 11:26
Airport Sydney Kingsford Smith International Airport (YSSY)
Time Latitude Longitude Altitude Speed Heading
2026-04-25 08:52 -41.32859 174.81010 27 ft 0 kts 53°
2026-04-25 09:07 -41.32864 174.81002 26 ft 4 kts 51°
2026-04-25 09:08 -41.32882 174.80975 26 ft 4 kts 37°
2026-04-25 09:08 -41.32904 174.80961 26 ft 4 kts 353°
2026-04-25 09:08 -41.32915 174.80967 26 ft 1 kts 273°
2026-04-25 09:08 -41.32915 174.80968 26 ft 0 kts 273°
2026-04-25 09:09 -41.32915 174.80957 26 ft 2 kts 273°
2026-04-25 09:09 -41.32914 174.80936 26 ft 2 kts 272°
2026-04-25 09:10 -41.32913 174.80914 26 ft 2 kts 272°
2026-04-25 09:10 -41.32916 174.80891 26 ft 3 kts 243°
2026-04-25 09:10 -41.32933 174.80881 26 ft 3 kts 191°
2026-04-25 09:10 -41.32936 174.80880 26 ft 0 kts 191°
2026-04-25 09:12 -41.32962 174.80871 26 ft 6 kts 202°
2026-04-25 09:12 -41.32972 174.80810 26 ft 7 kts 244°
2026-04-25 09:12 -41.33028 174.80796 26 ft 9 kts 185°
2026-04-25 09:12 -41.33104 174.80790 26 ft 14 kts 183°
2026-04-25 09:13 -41.33219 174.80782 26 ft 18 kts 182°
2026-04-25 09:13 -41.33354 174.80775 26 ft 21 kts 182°
2026-04-25 09:13 -41.33498 174.80766 26 ft 9 kts 184°
2026-04-25 09:13 -41.33518 174.80763 26 ft 0 kts 191°
2026-04-25 09:14 -41.33557 174.80732 26 ft 21 kts 223°
2026-04-25 09:14 -41.33506 174.80636 26 ft 18 kts
2026-04-25 09:14 -41.33189 174.80658 27 ft 82 kts
2026-04-25 09:15 -41.32413 174.80707 36 ft 137 kts
2026-04-25 09:15 -41.31387 174.80779 455 ft 150 kts
2026-04-25 09:15 -41.30326 174.80869 1048 ft 155 kts
2026-04-25 09:15 -41.29260 174.80950 1746 ft 153 kts
2026-04-25 09:16 -41.28160 174.81017 2134 ft 166 kts
2026-04-25 09:16 -41.26939 174.81088 2328 ft 183 kts 359°
2026-04-25 09:16 -41.25637 174.80878 2557 ft 199 kts 343°
2026-04-25 09:16 -41.24284 174.80167 2839 ft 220 kts 334°
2026-04-25 09:17 -41.21081 174.78751 3761 ft 260 kts 345°
2026-04-25 09:17 -41.19298 174.78141 4507 ft 269 kts 345°
2026-04-25 09:17 -41.17451 174.77508 5257 ft 278 kts 345°
2026-04-25 09:18 -41.15559 174.76839 6036 ft 284 kts 340°
2026-04-25 09:18 -41.13750 174.75749 6821 ft 288 kts 330°
2026-04-25 09:18 -41.11967 174.74515 7606 ft 291 kts 331°
2026-04-25 09:18 -41.10159 174.73268 8408 ft 294 kts 331°
2026-04-25 09:19 -41.08337 174.72007 9207 ft 297 kts 331°
2026-04-25 09:19 -41.06497 174.70731 10001 ft 300 kts 331°
2026-04-25 09:19 -41.04599 174.69408 10358 ft 320 kts 331°
2026-04-25 09:19 -41.02566 174.67989 10607 ft 339 kts 331°
2026-04-25 09:20 -41.00458 174.66522 11175 ft 345 kts 331°
2026-04-25 09:20 -40.98359 174.65053 11863 ft 347 kts 329°
2026-04-25 09:20 -40.96447 174.63125 12514 ft 347 kts 310°
2026-04-25 09:20 -40.95126 174.60468 13172 ft 347 kts 291°
2026-04-25 09:21 -40.94550 174.57392 13831 ft 346 kts 275°
2026-04-25 09:21 -40.94265 174.54223 14458 ft 348 kts 275°
2026-04-25 09:21 -40.93977 174.51034 15029 ft 351 kts 275°
2026-04-25 09:21 -40.93683 174.47815 15589 ft 354 kts 275°
2026-04-25 09:22 -40.93386 174.44572 16148 ft 357 kts 276°
2026-04-25 09:22 -40.93087 174.41302 16704 ft 360 kts 276°
2026-04-25 09:22 -40.92783 174.38009 17262 ft 363 kts 276°
2026-04-25 09:22 -40.92470 174.34640 17828 ft 366 kts 276°
2026-04-25 09:23 -40.92160 174.31335 18376 ft 369 kts 276°
2026-04-25 09:23 -40.91844 174.27959 18887 ft 371 kts 276°
2026-04-25 09:23 -40.91526 174.24560 19378 ft 374 kts 276°
2026-04-25 09:23 -40.91206 174.21133 19888 ft 377 kts 276°
2026-04-25 09:24 -40.90884 174.17689 20395 ft 379 kts 276°
2026-04-25 09:24 -40.90556 174.14221 20896 ft 382 kts 276°
2026-04-25 09:24 -40.90222 174.10730 21366 ft 384 kts 276°
2026-04-25 09:24 -40.89883 174.07213 21817 ft 386 kts 276°
2026-04-25 09:25 -40.89541 174.03684 22283 ft 389 kts 276°
2026-04-25 09:25 -40.89196 174.00122 22745 ft 391 kts 276°
2026-04-25 09:25 -40.88854 173.96548 23201 ft 394 kts 276°
2026-04-25 09:25 -40.88508 173.92953 23649 ft 396 kts 276°
2026-04-25 09:26 -40.88159 173.89324 24042 ft 399 kts 276°
2026-04-25 09:26 -40.87807 173.85682 24415 ft 401 kts 276°
2026-04-25 09:26 -40.87450 173.82028 24784 ft 403 kts 276°
2026-04-25 09:26 -40.87087 173.78341 25142 ft 405 kts 276°
2026-04-25 09:27 -40.86721 173.74639 25516 ft 407 kts 276°
2026-04-25 09:27 -40.86354 173.70926 25876 ft 410 kts 276°
2026-04-25 09:27 -40.85986 173.67187 26233 ft 412 kts 276°
2026-04-25 09:27 -40.85616 173.63421 26589 ft 414 kts 276°
2026-04-25 09:28 -40.85243 173.59640 26931 ft 416 kts 276°
2026-04-25 09:28 -40.84866 173.55841 27278 ft 418 kts 276°
2026-04-25 09:28 -40.84484 173.52028 27607 ft 421 kts 276°
2026-04-25 09:28 -40.84097 173.48184 27932 ft 423 kts 276°
2026-04-25 09:29 -40.83705 173.44326 28281 ft 425 kts 276°
2026-04-25 09:29 -40.83307 173.40446 28622 ft 427 kts 276°
2026-04-25 09:29 -40.82906 173.36550 28962 ft 430 kts 276°
2026-04-25 09:29 -40.82504 173.32631 29301 ft 432 kts 275°
2026-04-25 09:30 -40.82099 173.28692 29638 ft 434 kts 275°
2026-04-25 09:30 -40.81690 173.24730 29970 ft 437 kts 275°
2026-04-25 09:30 -40.81280 173.20748 30300 ft 439 kts 275°
2026-04-25 09:30 -40.80868 173.16756 30622 ft 440 kts 275°
2026-04-25 09:31 -40.80456 173.12760 31024 ft 438 kts 275°
2026-04-25 09:31 -40.80047 173.08784 31432 ft 437 kts 275°
2026-04-25 09:31 -40.79634 173.04810 31826 ft 436 kts 275°
2026-04-25 09:31 -40.79217 173.00851 32218 ft 436 kts 275°
2026-04-25 09:32 -40.78799 172.96895 32611 ft 435 kts 275°
2026-04-25 09:32 -40.78381 172.92943 32995 ft 435 kts 275°
2026-04-25 09:32 -40.77962 172.89003 33385 ft 434 kts 275°
2026-04-25 09:32 -40.77540 172.85060 33788 ft 433 kts 275°
2026-04-25 09:33 -40.77123 172.81175 34182 ft 433 kts 275°
2026-04-25 09:33 -40.76700 172.77203 34526 ft 432 kts 275°
2026-04-25 09:33 -40.76288 172.73334 34843 ft 431 kts 275°
2026-04-25 09:33 -40.75867 172.69421 35158 ft 431 kts 276°
2026-04-25 09:34 -40.75445 172.65514 35472 ft 430 kts 276°
2026-04-25 09:34 -40.75022 172.61613 35778 ft 429 kts 276°
2026-04-25 09:34 -40.74600 172.57722 36083 ft 428 kts 276°
2026-04-25 09:34 -40.74177 172.53832 36251 ft 429 kts 276°
2026-04-25 09:35 -40.73748 172.49926 36285 ft 431 kts 276°
2026-04-25 09:35 -40.72882 172.42097 36286 ft 432 kts 276°
2026-04-25 09:36 -40.72012 172.34268 36282 ft 431 kts 276°
2026-04-25 09:36 -40.71145 172.26450 36285 ft 431 kts 276°
2026-04-25 09:37 -40.70272 172.18631 36280 ft 431 kts 276°
2026-04-25 09:37 -40.69389 172.10813 36287 ft 431 kts 276°
2026-04-25 09:38 -40.68498 172.02999 36283 ft 432 kts 276°
2026-04-25 09:38 -40.67603 171.95173 36292 ft 432 kts 276°
2026-04-25 09:39 -40.66706 171.87354 36300 ft 432 kts 276°
2026-04-25 09:39 -40.65805 171.79538 36303 ft 432 kts 276°
2026-04-25 09:40 -40.64438 171.67820 36301 ft 431 kts 276°
2026-04-25 09:40 -40.63528 171.60014 36304 ft 431 kts 276°
2026-04-25 09:41 -40.62603 171.52211 36306 ft 431 kts 276°
2026-04-25 09:41 -40.61674 171.44422 36310 ft 431 kts 276°
2026-04-25 09:42 -40.60740 171.36633 36312 ft 431 kts 276°
2026-04-25 09:42 -40.59806 171.28843 36316 ft 431 kts 276°
2026-04-25 09:43 -40.58868 171.21065 36310 ft 430 kts 277°
2026-04-25 09:43 -40.57923 171.13289 36313 ft 431 kts 277°
2026-04-25 09:44 -40.56974 171.05516 36316 ft 431 kts 277°
2026-04-25 09:44 -40.56011 170.97746 36321 ft 430 kts 277°
2026-04-25 09:45 -40.55045 170.89977 36315 ft 430 kts 276°
2026-04-25 09:45 -40.54081 170.82210 36310 ft 431 kts 277°
2026-04-25 09:46 -40.53113 170.74429 36309 ft 431 kts 277°
2026-04-25 09:46 -40.52129 170.66647 36312 ft 432 kts 277°
2026-04-25 09:47 -40.51136 170.58860 36320 ft 432 kts 277°
2026-04-25 09:47 -40.49760 170.51156 36310 ft 434 kts 284°
2026-04-25 09:48 -40.48118 170.43573 36319 ft 435 kts 284°
2026-04-25 09:48 -40.46726 170.37172 36325 ft 435 kts 284°
2026-04-25 09:49 -40.44789 170.28289 36333 ft 436 kts 283°
2026-04-25 09:49 -40.43116 170.20651 36336 ft 435 kts 284°
2026-04-25 09:50 -40.41432 170.13014 36334 ft 436 kts 284°
2026-04-25 09:50 -40.40019 170.06622 36341 ft 435 kts 283°
2026-04-25 09:51 -40.38320 169.99000 36352 ft 435 kts 283°
2026-04-25 09:51 -40.36623 169.91389 36357 ft 435 kts 283°
2026-04-25 09:52 -40.34939 169.83779 36358 ft 435 kts 284°
2026-04-25 09:52 -40.33258 169.76226 36353 ft 435 kts 284°
2026-04-25 09:53 -40.31557 169.68626 36367 ft 434 kts 283°
2026-04-25 09:53 -40.29849 169.61049 36366 ft 434 kts 284°
2026-04-25 09:54 -40.28134 169.53484 36364 ft 434 kts 285°
2026-04-25 09:54 -40.26415 169.45911 36359 ft 434 kts 285°
2026-04-25 09:55 -40.24693 169.38345 36370 ft 434 kts 285°
2026-04-25 09:55 -40.22967 169.30788 36373 ft 433 kts 284°
2026-04-25 09:56 -40.21241 169.23239 36372 ft 433 kts 285°
2026-04-25 09:56 -40.19509 169.15694 36375 ft 433 kts 284°
2026-04-25 09:57 -40.17768 169.08162 36380 ft 432 kts 284°
2026-04-25 09:57 -40.16031 169.00636 36377 ft 432 kts 284°
2026-04-25 09:58 -40.14290 168.93117 36375 ft 432 kts 285°
2026-04-25 09:58 -40.12539 168.85592 36382 ft 433 kts 284°
2026-04-25 09:59 -40.10775 168.78079 36380 ft 433 kts 284°
2026-04-25 09:59 -40.09027 168.70615 36379 ft 433 kts 285°
2026-04-25 10:00 -40.07267 168.63099 36374 ft 433 kts 285°
2026-04-25 10:00 -40.05494 168.55584 36384 ft 433 kts 285°
2026-04-25 10:01 -40.03718 168.48084 36385 ft 433 kts 285°
2026-04-25 10:01 -40.01940 168.40584 36385 ft 432 kts 285°
2026-04-25 10:02 -40.00158 168.33099 36388 ft 432 kts 285°
2026-04-25 10:02 -39.98371 168.25624 36383 ft 432 kts 285°
2026-04-25 10:03 -39.96573 168.18158 36388 ft 432 kts 285°
2026-04-25 10:03 -39.94778 168.10690 36391 ft 431 kts 285°
2026-04-25 10:04 -39.92979 168.03231 36387 ft 432 kts 286°
2026-04-25 10:04 -39.91174 167.95765 36388 ft 432 kts 285°
2026-04-25 10:05 -39.89366 167.88304 36395 ft 432 kts 285°
2026-04-25 10:05 -39.87554 167.80841 36397 ft 432 kts 286°
2026-04-25 10:06 -39.85733 167.73392 36399 ft 432 kts 286°
2026-04-25 10:06 -39.83901 167.65961 36406 ft 431 kts 285°
2026-04-25 10:07 -39.82072 167.58539 36395 ft 431 kts 286°
2026-04-25 10:07 -39.80249 167.51114 36403 ft 431 kts 285°
2026-04-25 10:08 -39.78412 167.43685 36393 ft 432 kts 287°
2026-04-25 10:08 -39.76576 167.36289 36386 ft 433 kts 287°
2026-04-25 10:09 -39.74719 167.28840 36387 ft 434 kts 286°
2026-04-25 10:09 -39.72861 167.21385 36392 ft 434 kts 285°
2026-04-25 10:10 -39.70997 167.13919 36398 ft 434 kts 286°
2026-04-25 10:10 -39.69119 167.06461 36405 ft 435 kts 286°
2026-04-25 10:11 -39.67232 166.99001 36407 ft 435 kts 287°
2026-04-25 10:11 -39.65352 166.91545 36408 ft 435 kts 286°
2026-04-25 10:12 -39.63462 166.84100 36405 ft 435 kts 287°
2026-04-25 10:13 -39.60627 166.72985 36369 ft 436 kts 287°
2026-04-25 10:13 -39.58723 166.65533 36401 ft 435 kts 287°
2026-04-25 10:14 -39.56819 166.58094 36401 ft 435 kts 286°
2026-04-25 10:14 -39.54914 166.50662 36401 ft 434 kts 286°
2026-04-25 10:15 -39.53001 166.43245 36406 ft 434 kts 287°
2026-04-25 10:15 -39.51079 166.35837 36411 ft 434 kts 287°
2026-04-25 10:16 -39.49159 166.28429 36411 ft 434 kts 287°
2026-04-25 10:16 -39.47227 166.21018 36415 ft 435 kts 287°
2026-04-25 10:17 -39.45297 166.13610 36410 ft 434 kts 287°
2026-04-25 10:17 -39.43363 166.06202 36409 ft 435 kts 287°
2026-04-25 10:18 -39.41416 165.98791 36412 ft 435 kts 287°
2026-04-25 10:18 -39.39466 165.91388 36416 ft 435 kts 288°
2026-04-25 10:19 -39.37504 165.83984 36405 ft 436 kts 287°
2026-04-25 10:19 -39.35533 165.76558 36399 ft 437 kts 288°
2026-04-25 10:20 -39.33557 165.69129 36401 ft 438 kts 287°
2026-04-25 10:20 -39.31582 165.61688 36406 ft 438 kts 288°
2026-04-25 10:21 -39.29598 165.54241 36407 ft 439 kts 287°
2026-04-25 10:21 -39.27613 165.46843 36414 ft 439 kts 287°
2026-04-25 10:22 -39.25596 165.39353 36418 ft 439 kts 288°
2026-04-25 10:22 -39.23604 165.31958 36423 ft 439 kts 288°
2026-04-25 10:23 -39.21593 165.24521 36431 ft 439 kts 288°
2026-04-25 10:23 -39.19575 165.17092 36429 ft 439 kts 287°
2026-04-25 10:24 -39.17547 165.09664 36426 ft 439 kts 288°
2026-04-25 10:24 -39.15520 165.02228 36414 ft 441 kts 288°
2026-04-25 10:25 -39.13486 164.94778 36414 ft 441 kts 288°
2026-04-25 10:25 -39.11448 164.87320 36420 ft 442 kts 289°
2026-04-25 10:26 -39.09398 164.79860 36430 ft 442 kts 288°
2026-04-25 10:26 -39.07331 164.72402 36427 ft 442 kts 288°
2026-04-25 10:27 -39.05263 164.64955 36429 ft 442 kts 289°
2026-04-25 10:27 -39.03202 164.57495 36434 ft 443 kts 288°
2026-04-25 10:28 -39.01131 164.50039 36440 ft 443 kts 288°
2026-04-25 10:28 -38.99050 164.42596 36442 ft 442 kts 289°
2026-04-25 10:29 -38.96960 164.35164 36446 ft 442 kts 289°
2026-04-25 10:29 -38.94868 164.27735 36435 ft 443 kts 289°
2026-04-25 10:30 -38.92780 164.20291 36430 ft 444 kts 289°
2026-04-25 10:30 -38.90680 164.12838 36432 ft 444 kts 289°
2026-04-25 10:31 -38.88561 164.05373 36438 ft 445 kts 289°
2026-04-25 10:31 -38.86439 163.97909 36439 ft 445 kts 289°
2026-04-25 10:32 -38.84311 163.90452 36453 ft 445 kts 289°
2026-04-25 10:32 -38.82186 163.82981 36457 ft 446 kts 289°
2026-04-25 10:33 -38.80061 163.75570 36460 ft 446 kts 289°
2026-04-25 10:33 -38.77916 163.68113 36462 ft 446 kts 289°
2026-04-25 10:34 -38.75773 163.60656 36456 ft 446 kts 289°
2026-04-25 10:34 -38.73632 163.53205 36458 ft 446 kts 289°
2026-04-25 10:35 -38.71474 163.45759 36460 ft 446 kts 289°
2026-04-25 10:35 -38.69310 163.38325 36461 ft 446 kts 289°
2026-04-25 10:36 -38.67144 163.30890 36460 ft 446 kts 290°
2026-04-25 10:36 -38.64972 163.23467 36459 ft 445 kts 290°
2026-04-25 10:37 -38.62798 163.16050 36462 ft 445 kts 290°
2026-04-25 10:37 -38.60994 163.09894 36465 ft 445 kts 290°
2026-04-25 10:38 -38.58810 163.02496 36465 ft 445 kts 290°
2026-04-25 10:38 -38.56599 162.95108 36463 ft 445 kts 290°
2026-04-25 10:39 -38.54308 162.87754 36465 ft 446 kts 291°
2026-04-25 10:39 -38.51997 162.80409 36471 ft 446 kts 291°
2026-04-25 10:40 -38.49696 162.73058 36463 ft 446 kts 291°
2026-04-25 10:40 -38.47396 162.65701 36461 ft 447 kts 291°
2026-04-25 10:41 -38.45085 162.58338 36457 ft 447 kts 291°
2026-04-25 10:41 -38.42773 162.50970 36460 ft 448 kts 291°
2026-04-25 10:42 -38.40449 162.43588 36468 ft 448 kts 291°
2026-04-25 10:42 -38.38109 162.36217 36474 ft 449 kts 291°
2026-04-25 10:43 -38.35783 162.28892 36474 ft 449 kts 291°
2026-04-25 10:43 -38.33438 162.21522 36470 ft 449 kts 291°
2026-04-25 10:44 -38.31092 162.14159 36473 ft 449 kts 291°
2026-04-25 10:44 -38.28741 162.06788 36482 ft 449 kts 291°
2026-04-25 10:45 -38.26388 161.99430 36479 ft 449 kts 291°
2026-04-25 10:45 -38.24027 161.92079 36481 ft 449 kts 291°
2026-04-25 10:46 -38.21656 161.84742 36481 ft 449 kts 291°
2026-04-25 10:46 -38.19252 161.77326 36484 ft 449 kts 291°
2026-04-25 10:47 -38.10546 161.50478 36480 ft 448 kts 292°
2026-04-25 10:47 -38.00951 161.21235 36466 ft 449 kts 292°
2026-04-25 10:48 -37.91247 160.91993 36482 ft 450 kts 292°
2026-04-25 10:48 -37.81459 160.62782 36478 ft 451 kts 292°
2026-04-25 10:49 -37.71620 160.33634 36476 ft 451 kts 292°
2026-04-25 10:49 -37.61671 160.04538 36473 ft 452 kts 292°
2026-04-25 10:50 -37.51625 159.75388 36471 ft 454 kts 292°
2026-04-25 10:50 -37.41459 159.46214 36485 ft 455 kts 292°
2026-04-25 10:51 -37.31228 159.17130 36469 ft 455 kts 292°
2026-04-25 10:51 -37.20906 158.88031 36487 ft 456 kts 293°
2026-04-25 10:52 -37.10489 158.59003 36455 ft 458 kts 293°
2026-04-25 10:52 -36.99950 158.29922 36482 ft 459 kts 293°
2026-04-25 10:53 -36.89392 158.01049 36462 ft 459 kts 293°
2026-04-25 10:53 -36.78715 157.72110 36463 ft 459 kts 294°
2026-04-25 10:54 -36.67967 157.43199 36471 ft 460 kts 294°
2026-04-25 10:54 -36.57109 157.14315 36454 ft 461 kts 294°
2026-04-25 10:55 -36.46165 156.85492 36465 ft 461 kts 294°
2026-04-25 10:55 -36.35145 156.56720 36444 ft 461 kts 294°
2026-04-25 10:56 -36.24088 156.28100 36450 ft 460 kts 294°
2026-04-25 10:56 -36.12956 155.99537 36445 ft 461 kts 294°
2026-04-25 10:57 -36.01747 155.71056 36436 ft 461 kts 294°
2026-04-25 10:57 -35.90480 155.42635 36442 ft 461 kts 295°
2026-04-25 10:58 -35.79135 155.14322 36436 ft 460 kts 295°
2026-04-25 10:58 -35.67743 154.86120 36442 ft 460 kts 295°
2026-04-25 10:59 -35.54197 154.59598 36435 ft 461 kts 309°
2026-04-25 10:59 -35.37637 154.35892 36428 ft 461 kts 310°
2026-04-25 11:00 -35.20908 154.12138 36418 ft 460 kts 310°
2026-04-25 11:00 -35.04138 153.88555 36419 ft 460 kts 310°
2026-04-25 11:01 -34.87316 153.65059 36408 ft 460 kts 310°
2026-04-25 11:01 -34.75286 153.48345 36408 ft 460 kts 310°
2026-04-25 11:02 -34.66845 153.36663 36409 ft 459 kts 310°
2026-04-25 11:02 -34.62622 153.30830 36241 ft 463 kts 310°
2026-04-25 11:02 -34.58332 153.24920 35170 ft 464 kts 310°
2026-04-25 11:02 -34.54081 153.19062 34093 ft 461 kts 310°
2026-04-25 11:03 -34.49856 153.13272 33080 ft 455 kts 310°
2026-04-25 11:03 -34.45693 153.07562 32081 ft 449 kts 310°
2026-04-25 11:03 -34.41587 153.01929 31120 ft 443 kts 310°
2026-04-25 11:03 -34.37524 152.96370 30139 ft 438 kts 310°
2026-04-25 11:04 -34.33528 152.90922 29262 ft 428 kts 310°
2026-04-25 11:04 -34.29611 152.85587 28426 ft 420 kts 311°
2026-04-25 11:04 -34.25769 152.80360 27575 ft 414 kts 311°
2026-04-25 11:04 -34.23193 152.76855 26996 ft 411 kts 311°
2026-04-25 11:05 -34.18192 152.70075 25825 ft 406 kts 311°
2026-04-25 11:05 -34.14455 152.64998 24915 ft 404 kts 311°
2026-04-25 11:05 -34.10733 152.59947 23983 ft 402 kts 311°
2026-04-25 11:05 -34.08124 152.54077 23009 ft 395 kts 284°
2026-04-25 11:06 -34.07388 152.47595 22118 ft 387 kts 275°
2026-04-25 11:06 -34.06793 152.41208 21242 ft 380 kts 275°
2026-04-25 11:06 -34.06193 152.34948 20379 ft 374 kts 276°
2026-04-25 11:06 -34.05595 152.28769 19522 ft 369 kts 276°
2026-04-25 11:07 -34.05005 152.22660 18666 ft 364 kts 276°
2026-04-25 11:07 -34.04420 152.16637 17792 ft 358 kts 276°
2026-04-25 11:07 -34.03849 152.10731 16945 ft 352 kts 276°
2026-04-25 11:07 -34.03085 152.04946 16074 ft 348 kts 291°
2026-04-25 11:08 -34.00920 151.99777 15366 ft 341 kts 301°
2026-04-25 11:08 -33.97650 151.93697 15407 ft 324 kts 303°
2026-04-25 11:08 -33.95767 151.90250 15385 ft 328 kts 303°
2026-04-25 11:08 -33.94509 151.87950 15383 ft 330 kts 303°
2026-04-25 11:09 -33.93242 151.85637 15384 ft 332 kts 303°
2026-04-25 11:09 -33.91975 151.83321 15372 ft 330 kts 303°
2026-04-25 11:09 -33.90737 151.81058 15075 ft 327 kts 303°
2026-04-25 11:09 -33.89488 151.78779 14743 ft 325 kts 303°
2026-04-25 11:10 -33.88245 151.76514 14401 ft 324 kts 303°
2026-04-25 11:10 -33.87409 151.74990 14166 ft 323 kts 303°
2026-04-25 11:10 -33.85889 151.71879 13685 ft 320 kts 289°
2026-04-25 11:10 -33.85454 151.69279 13268 ft 317 kts 268°
2026-04-25 11:11 -33.85812 151.66700 12935 ft 311 kts 247°
2026-04-25 11:11 -33.86855 151.64434 12269 ft 313 kts 228°
2026-04-25 11:11 -33.88291 151.62479 11315 ft 319 kts 226°
2026-04-25 11:11 -33.89787 151.60497 10528 ft 320 kts 225°
2026-04-25 11:12 -33.91276 151.58524 9996 ft 312 kts 226°
2026-04-25 11:12 -33.92703 151.56622 9501 ft 302 kts 226°
2026-04-25 11:12 -33.94087 151.54762 8960 ft 296 kts 227°
2026-04-25 11:12 -33.95418 151.52970 8768 ft 277 kts 226°
2026-04-25 11:13 -33.96664 151.51288 8606 ft 261 kts 226°
2026-04-25 11:13 -33.97856 151.49681 8236 ft 255 kts 227°
2026-04-25 11:13 -33.99030 151.48098 7786 ft 252 kts 227°
2026-04-25 11:13 -34.00192 151.46531 7336 ft 250 kts 227°
2026-04-25 11:14 -34.01345 151.44978 6909 ft 247 kts 226°
2026-04-25 11:14 -34.02604 151.43584 6404 ft 245 kts 219°
2026-04-25 11:14 -34.03914 151.42295 6050 ft 240 kts 218°
2026-04-25 11:14 -34.05230 151.41031 6006 ft 243 kts 218°
2026-04-25 11:15 -34.06562 151.39757 6010 ft 246 kts 218°
2026-04-25 11:15 -34.07899 151.38475 6010 ft 245 kts 218°
2026-04-25 11:15 -34.09237 151.37195 6009 ft 245 kts 218°
2026-04-25 11:15 -34.10574 151.35913 6008 ft 245 kts 218°
2026-04-25 11:16 -34.13242 151.33360 6009 ft 245 kts 218°
2026-04-25 11:16 -34.14576 151.32082 6010 ft 244 kts 218°
2026-04-25 11:16 -34.15906 151.30810 6007 ft 244 kts 218°
2026-04-25 11:17 -34.17252 151.29539 6009 ft 246 kts 218°
2026-04-25 11:17 -34.18604 151.28271 6009 ft 246 kts 218°
2026-04-25 11:17 -34.19953 151.27004 5960 ft 245 kts 218°
2026-04-25 11:17 -34.21296 151.25746 5648 ft 244 kts 218°
2026-04-25 11:18 -34.22639 151.24499 5353 ft 243 kts 218°
2026-04-25 11:18 -34.23833 151.23080 5064 ft 240 kts 241°
2026-04-25 11:18 -34.24289 151.21195 4746 ft 234 kts 274°
2026-04-25 11:18 -34.23848 151.19357 4406 ft 227 kts 307°
2026-04-25 11:19 -34.22674 151.18154 4066 ft 222 kts 340°
2026-04-25 11:19 -34.21178 151.18011 3747 ft 218 kts 16°
2026-04-25 11:19 -34.19740 151.18577 3447 ft 217 kts 15°
2026-04-25 11:19 -34.18272 151.19012 3129 ft 217 kts 14°
2026-04-25 11:20 -34.16812 151.19405 3011 ft 214 kts 13°
2026-04-25 11:20 -34.15370 151.19788 3006 ft 207 kts 12°
2026-04-25 11:20 -34.14030 151.20124 3007 ft 192 kts 12°
2026-04-25 11:20 -34.12761 151.20450 3011 ft 185 kts 13°
2026-04-25 11:21 -34.11542 151.20772 3021 ft 171 kts 13°
2026-04-25 11:21 -34.10442 151.21061 2909 ft 151 kts 13°
2026-04-25 11:21 -34.09437 151.21162 2668 ft 142 kts
2026-04-25 11:21 -34.08485 151.21085 2450 ft 136 kts 356°
2026-04-25 11:22 -34.07562 151.20953 2267 ft 132 kts 356°
2026-04-25 11:22 -34.06949 151.20845 2148 ft 132 kts 353°
2026-04-25 11:22 -34.05783 151.20523 1819 ft 129 kts 349°
2026-04-25 11:22 -34.04912 151.20272 1558 ft 129 kts 351°
2026-04-25 11:23 -34.04041 151.20022 1435 ft 128 kts 351°
2026-04-25 11:23 -34.03162 151.19801 1290 ft 130 kts 352°
2026-04-25 11:23 -34.02275 151.19590 1181 ft 130 kts 351°
2026-04-25 11:23 -34.01392 151.19343 1103 ft 132 kts 351°
2026-04-25 11:24 -34.00498 151.19111 894 ft 131 kts 353°
2026-04-25 11:24 -33.99622 151.18882 742 ft 128 kts 352°
2026-04-25 11:24 -33.98740 151.18671 513 ft 130 kts 350°
2026-04-25 11:24 -33.97849 151.18436 370 ft 132 kts 348°
2026-04-25 11:25 -33.96950 151.18198 202 ft 132 kts 351°
2026-04-25 11:25 -33.96050 151.17966 35 ft 132 kts 350°
2026-04-25 11:25 -33.95473 151.17826 29 ft 110 kts 348°
2026-04-25 11:25 -33.94937 151.17688 29 ft 56 kts 346°
2026-04-25 11:26 -33.94600 151.17591 30 ft 48 kts 347°
2026-04-25 11:26 -33.94318 151.17519 30 ft 18 kts 346°
2026-04-25 11:26 -33.94211 151.17487 30 ft 17 kts 349°
2026-04-25 11:26 -33.94081 151.17455 28 ft 23 kts 348°
2026-04-25 11:27 -33.93941 151.17387 26 ft 18 kts 279°
2026-04-25 11:27 -33.93958 151.17277 28 ft 0 kts 257°
2026-04-25 11:27 -33.93958 151.17275 28 ft 1 kts 257°
2026-04-25 11:28 -33.93982 151.17161 29 ft 20 kts 254°
2026-04-25 11:28 -33.94026 151.16989 30 ft 23 kts 253°
2026-04-25 11:28 -33.94054 151.16830 30 ft 13 kts 292°
2026-04-25 11:28 -33.93963 151.16785 30 ft 15 kts 344°
2026-04-25 11:29 -33.93927 151.16758 30 ft 4 kts 276°
2026-04-25 11:29 -33.93930 151.16714 30 ft 7 kts 262°
2026-04-25 11:29 -33.93934 151.16681 30 ft 2 kts 262°
2026-04-25 11:29 -33.93934 151.16680 30 ft 0 kts 262°